Torna al catalogo

STARLINK-32138

AttivoComunicazioniVLEO
NORAD 60255·PAYLOAD·🇺🇸 United States

Lanciato Jul 27, 2024 da Cape Canaveral Space Force Station

Loading…

Prossimi Passaggi (prossime 24 ore)

TLE

AggiornatoSource: CelesTrak SupGP

Epoca: Sep 14, 2026, 20:46 UTC

1 60255C 24131A   26257.86576389  .00052676  00000+0  16940-2 0  2577
2 60255  53.1563 252.3912 0001290  99.3256 172.8891 15.31674588    18

Traccia STARLINK-32138 in tempo reale con AllMySat

Download on the App Store